Tracking 21475 objects as of 29-Sep-2020
HD Live streaming from Space Station
objects crossing your sky now

CZ-4 R/B

Track CZ-4 R/B now!
10-day predictions
CZ-4 R/B is classified as:


NORAD ID: 29507
Int'l Code: 2006-046C
Perigee: 537.6 km
Apogee: 606.9 km
Inclination: 97.7 °
Period: 96.0 minutes
Semi major axis: 6943 km
RCS: 4.43 m2 (large)
Launch date: October 23, 2006
Source: People's Republic of China (PRC)
Launch site: Taiyaun Space Center, China (TSC)

Note: This is a ROCKET BODY
aabbcc
Your satellite tracking list
Your tracking list is empty




NASA's NSSDC Master Catalog

Two Line Element Set (TLE):
1 29507U 06046C   20272.77881567 -.00000423 +00000-0 -27707-4 0  9999
2 29507 097.7335 294.3583 0049929 174.6248 185.5523 15.00572276760869
Source of the keplerian elements: AFSPC